TimeEST,TemperatureF,Dew PointF,Humidity,Sea Level PressureIn,VisibilityMPH,Wind Direction,Wind SpeedMPH,Gust SpeedMPH,PrecipitationIn,Events,Conditions,WindDirDegrees,DateUTC
12:55 AM,48.9,40.8,74,30.15,10.0,Variable,6.9,-,N/A,,Clear,0,2012-11-20 05:55:00
1:55 AM,47.7,40.1,75,30.13,10.0,North,8.1,-,N/A,,Clear,350,2012-11-20 06:55:00
2:55 AM,46.9,39.4,75,30.14,10.0,North,8.1,-,N/A,,Clear,360,2012-11-20 07:55:00
3:55 AM,46.2,39.2,76,30.12,10.0,North,6.9,-,N/A,,Clear,350,2012-11-20 08:55:00
4:55 AM,46.0,39.0,76,30.13,10.0,North,8.1,-,N/A,,Clear,360,2012-11-20 09:55:00
5:55 AM,45.1,38.8,79,30.14,10.0,NNE,9.2,-,N/A,,Clear,20,2012-11-20 10:55:00
6:55 AM,44.1,38.5,81,30.14,10.0,NNE,6.9,-,N/A,,Clear,30,2012-11-20 11:55:00
7:46 AM,46.4,39.2,76,30.15,10.0,NE,8.1,-,N/A,,Mostly Cloudy,40,2012-11-20 12:46:00
7:55 AM,45.9,39.4,78,30.16,10.0,NE,11.5,-,N/A,,Mostly Cloudy,40,2012-11-20 12:55:00
8:00 AM,46.4,39.2,76,30.15,10.0,NE,9.2,-,N/A,,Overcast,50,2012-11-20 13:00:00
8:08 AM,46.4,39.2,76,30.15,10.0,NE,10.4,-,N/A,,Overcast,50,2012-11-20 13:08:00
8:20 AM,46.4,39.2,76,30.15,8.0,NE,10.4,-,N/A,,Overcast,50,2012-11-20 13:20:00
8:35 AM,46.4,41.0,81,30.15,10.0,NE,8.1,-,N/A,,Overcast,40,2012-11-20 13:35:00
8:55 AM,46.9,41.7,82,30.17,8.0,North,5.8,-,N/A,,Overcast,360,2012-11-20 13:55:00
9:08 AM,48.2,41.0,76,30.16,10.0,NNW,5.8,-,N/A,,Overcast,330,2012-11-20 14:08:00
9:17 AM,48.2,42.8,82,30.16,10.0,NW,4.6,-,N/A,,Overcast,320,2012-11-20 14:17:00
9:52 AM,51.8,42.8,71,30.17,10.0,NNE,5.8,-,N/A,,Overcast,30,2012-11-20 14:52:00
9:55 AM,51.3,42.8,73,30.17,10.0,NNE,5.8,-,N/A,,Mostly Cloudy,30,2012-11-20 14:55:00
10:55 AM,55.0,43.3,65,30.15,10.0,NNE,6.9,-,N/A,,Scattered Clouds,30,2012-11-20 15:55:00
11:55 AM,61.0,44.1,54,30.12,10.0,NNE,9.2,-,N/A,,Clear,30,2012-11-20 16:55:00
12:55 PM,61.3,43.3,52,30.09,10.0,North,8.1,-,N/A,,Partly Cloudy,360,2012-11-20 17:55:00
1:55 PM,62.4,42.4,48,30.07,10.0,North,9.2,-,N/A,,Scattered Clouds,350,2012-11-20 18:55:00
2:33 PM,62.6,41.0,45,30.06,10.0,North,11.5,-,N/A,,Light Drizzle,360,2012-11-20 19:33:00
2:42 PM,60.8,41.0,48,30.06,10.0,North,8.1,-,N/A,,Scattered Clouds,360,2012-11-20 19:42:00
3:55 PM,61.9,41.9,48,30.05,10.0,North,5.8,-,N/A,,Clear,360,2012-11-20 20:55:00
4:55 PM,60.1,43.0,53,30.05,10.0,NNW,5.8,-,N/A,,Scattered Clouds,340,2012-11-20 21:55:00
5:55 PM,54.5,43.5,66,30.06,10.0,Calm,Calm,-,N/A,,Clear,0,2012-11-20 22:55:00
6:55 PM,51.1,42.6,73,30.08,10.0,Calm,Calm,-,N/A,,Clear,0,2012-11-20 23:55:00
7:55 PM,47.3,41.9,82,30.08,10.0,Calm,Calm,-,N/A,,Clear,0,2012-11-21 00:55:00
8:55 PM,46.2,41.0,82,30.08,10.0,Calm,Calm,-,N/A,,Clear,0,2012-11-21 01:55:00
9:55 PM,46.6,40.8,80,30.09,10.0,Calm,Calm,-,N/A,,Clear,0,2012-11-21 02:55:00
10:55 PM,44.6,39.4,82,30.09,10.0,Calm,Calm,-,N/A,,Clear,0,2012-11-21 03:55:00
11:55 PM,45.1,39.9,82,30.09,10.0,Calm,Calm,-,N/A,,Clear,0,2012-11-21 04:55:00